Huntsville Madison, AL

1:35 AM CDT on May 30, 2017 (GMT -0500)
Huntsville Madison

Weather History for KMDQ - October, 2012

Change the Weather History Date:

Monday, October 22, 2012

  Actual Average (KHSV) Record (KHSV)
Temperature  
Mean Temperature 64 °F -  
Max Temperature 78 °F 71 °F 88 °F (1963)
Min Temperature 51 °F 47 °F 27 °F (1952)
Growing Degree Days 14 (Base 50)    
Moisture  
Dew Point 53 °F    
Average Humidity 72    
Maximum Humidity 100    
Minimum Humidity 36    
Precipitation  
Precipitation 0.00 in - - ()
Sea Level Pressure  
Sea Level Pressure 30.15 in    
Wind  
Wind Speed 1 mph (South)    
Max Wind Speed 9 mph    
Max Gust Speed -    
Visibility 10 miles    
Events      
Averages and records for this station are not official NWS values.
T = Trace of Precipitation, MM = Missing Value Source: NWS Daily Summary

Daily Weather History Graph

Daily Weather History Graph

Search for Another Location

Airport or City:

Trip Planner

Search our weather history database for the weather conditions in past years. The results will help you decide how hot, cold, wet, or windy it might be!

Date:

Astronomy

Oct. 22, 2012 Rise Set
Actual Time 6:58 AM CDT 6:02 PM CDT
Civil Twilight 6:32 AM CDT 6:27 PM CDT
Nautical Twilight 6:03 AM CDT 6:57 PM CDT
Astronomical Twilight 5:33 AM CDT 7:26 PM CDT
Moon 1:55 PM CDT (10/22) 12:01 AM CDT (10/22)
Length of Visible Light 11h 55m
Length of Day
11h 03m
First Quarter, 56% of the Moon is Illuminated
Oct 22
First Quarter
Oct 29
Full
Nov 6
Last Quarter
Nov 13
New
Nov 20
First Quarter

Hourly Weather History & Observations

Time (CDT) Temp. Dew Point Humidity Pressure Visibility Wind Dir Wind Speed Gust Speed Precip Events Conditions
12:15 AM 53.6 °F 53.6 °F 100% 30.14 in 10.0 mi Calm Calm - N/A   Clear
12:35 AM 51.8 °F 51.8 °F 100% 30.14 in 10.0 mi Calm Calm - N/A   Clear
12:55 AM 51.8 °F 51.8 °F 100% 30.14 in 10.0 mi Calm Calm - N/A   Scattered Clouds
1:35 AM 51.8 °F 51.8 °F 100% 30.14 in 10.0 mi Calm Calm - N/A   Clear
1:55 AM 51.8 °F 51.8 °F 100% 30.14 in 10.0 mi Calm Calm - N/A   Clear
2:55 AM 51.8 °F 51.8 °F 100% 30.14 in 10.0 mi Calm Calm - N/A   Mostly Cloudy
3:15 AM 51.8 °F 51.8 °F 100% 30.14 in 10.0 mi Calm Calm - N/A   Scattered Clouds
3:55 AM 51.8 °F 51.8 °F 100% 30.15 in 10.0 mi Calm Calm - N/A   Scattered Clouds
4:55 AM 53.6 °F 53.6 °F 100% 30.15 in 10.0 mi Calm Calm - N/A   Overcast
5:15 AM 53.6 °F 53.6 °F 100% 30.16 in 10.0 mi Calm Calm - N/A   Overcast
5:35 AM 53.6 °F 53.6 °F 100% 30.17 in 10.0 mi Calm Calm - N/A   Overcast
6:15 AM 55.4 °F 53.6 °F 94% 30.18 in 10.0 mi Calm Calm - N/A   Overcast
6:35 AM 55.4 °F 53.6 °F 94% 30.19 in 10.0 mi Calm Calm - N/A   Overcast
7:15 AM 55.4 °F 53.6 °F 94% 30.19 in 10.0 mi Calm Calm - N/A   Overcast
7:35 AM 55.4 °F 53.6 °F 94% 30.19 in 10.0 mi Calm Calm - N/A   Overcast
9:35 AM 62.6 °F 53.6 °F 72% 30.21 in 10.0 mi Calm Calm - N/A   Scattered Clouds
9:55 AM 64.4 °F 53.6 °F 68% 30.21 in 10.0 mi South 4.6 mph - N/A   Clear
10:15 AM 64.4 °F 53.6 °F 68% 30.21 in 10.0 mi East 4.6 mph - N/A   Clear
10:35 AM 68.0 °F 53.6 °F 60% 30.21 in 10.0 mi SE 4.6 mph - N/A   Clear
10:55 AM 71.6 °F 51.8 °F 50% 30.22 in 10.0 mi South 6.9 mph - N/A   Clear
11:35 AM 73.4 °F 50.0 °F 44% 30.21 in 10.0 mi South 4.6 mph - N/A   Clear
12:15 PM 73.4 °F 50.0 °F 44% 30.19 in 10.0 mi South 9.2 mph - N/A   Clear
12:35 PM 75.2 °F 50.0 °F 41% 30.19 in 10.0 mi SSW 5.8 mph - N/A   Clear
12:55 PM 75.2 °F 48.2 °F 38% 30.17 in 10.0 mi SSW 3.5 mph - N/A   Clear
1:15 PM 77.0 °F 50.0 °F 39% 30.15 in 10.0 mi SSW 6.9 mph - N/A   Clear
1:35 PM 77.0 °F 50.0 °F 39% 30.14 in 10.0 mi Calm Calm - N/A   Clear
1:55 PM 77.0 °F 51.8 °F 41% 30.14 in 10.0 mi SSW 3.5 mph - N/A   Clear
2:15 PM 78.8 °F 50.0 °F 36% 30.13 in 10.0 mi South 3.5 mph - N/A   Clear
2:35 PM 78.8 °F 50.0 °F 36% 30.12 in 10.0 mi SSW 4.6 mph - N/A   Clear
3:15 PM 78.8 °F 50.0 °F 36% 30.11 in 10.0 mi South 3.5 mph - N/A   Clear
3:35 PM 78.8 °F 50.0 °F 36% 30.11 in 10.0 mi South 5.8 mph - N/A   Clear
3:55 PM 78.8 °F 50.0 °F 36% 30.11 in 10.0 mi Calm Calm - N/A   Clear
4:15 PM 78.8 °F 51.8 °F 39% 30.11 in 10.0 mi SSW 3.5 mph - N/A   Clear
4:35 PM 78.8 °F 51.8 °F 39% 30.11 in 10.0 mi SW 4.6 mph - N/A   Clear
5:15 PM 78.8 °F 50.0 °F 36% 30.11 in 10.0 mi Calm Calm - N/A   Clear
5:35 PM 77.0 °F 55.4 °F 47% 30.12 in 10.0 mi Calm Calm - N/A   Clear
5:55 PM 73.4 °F 57.2 °F 57% 30.13 in 10.0 mi Calm Calm - N/A   Clear
6:15 PM 68.0 °F 57.2 °F 68% 30.13 in 10.0 mi Calm Calm - N/A   Clear
6:35 PM 66.2 °F 59.0 °F 78% 30.13 in 10.0 mi Calm Calm - N/A   Clear
6:55 PM 64.4 °F 55.4 °F 73% 30.14 in 10.0 mi Calm Calm - N/A   Clear
7:35 PM 60.8 °F 57.2 °F 88% 30.14 in 10.0 mi Calm Calm - N/A   Clear
8:55 PM 59.0 °F 57.2 °F 94% 30.15 in 10.0 mi Calm Calm - N/A   Clear
9:15 PM 57.2 °F 55.4 °F 94% 30.15 in 10.0 mi Calm Calm - N/A   Clear
9:55 PM 55.4 °F 55.4 °F 100% 30.14 in 10.0 mi Calm Calm - N/A   Clear
10:35 PM 55.4 °F 55.4 °F 100% 30.14 in 10.0 mi Calm Calm - N/A   Clear
11:15 PM 55.4 °F 55.4 °F 100% 30.14 in 10.0 mi Calm Calm - N/A   Clear
11:35 PM 53.6 °F 53.6 °F 100% 30.13 in 10.0 mi Calm Calm - N/A   Clear
11:55 PM 55.4 °F 53.6 °F 94% 30.13 in 10.0 mi Calm Calm - N/A   Clear